Time,TemperatureF,DewpointF,PressureIn,WindDirection,WindDirectionDegrees,WindSpeedMPH,WindSpeedGustMPH,Humidity,HourlyPrecipIn,Conditions,Clouds,dailyrainin,SoftwareType,DateUTC
2013-03-31 00:00:00,44.0,30.6,30.11,SW,222,2.0,2.0,59,0.00,,,0.00,Wunderground v.1.15,2013-03-31 04:00:00,
2013-03-31 00:05:00,43.7,30.7,30.12,South,174,1.0,2.0,60,0.00,,,0.00,Wunderground v.1.15,2013-03-31 04:05:00,
2013-03-31 00:10:00,43.6,30.2,30.12,West,260,1.0,1.0,59,0.00,,,0.00,Wunderground v.1.15,2013-03-31 04:10:00,
2013-03-31 00:15:00,43.5,30.5,30.11,WSW,243,2.0,2.0,60,0.00,,,0.00,Wunderground v.1.15,2013-03-31 04:15:00,
2013-03-31 00:20:00,43.5,30.5,30.12,SSE,167,2.0,2.0,60,0.00,,,0.00,Wunderground v.1.15,2013-03-31 04:20:00,
2013-03-31 00:25:00,43.5,30.5,30.12,West,278,2.0,2.0,60,0.00,,,0.00,Wunderground v.1.15,2013-03-31 04:25:00,
2013-03-31 00:30:00,43.3,30.3,30.12,WSW,243,1.0,1.0,60,0.00,,,0.00,Wunderground v.1.15,2013-03-31 04:30:00,
2013-03-31 00:35:00,43.3,30.7,30.11,SW,221,1.0,2.0,61,0.00,,,0.00,Wunderground v.1.15,2013-03-31 04:35:00,
2013-03-31 00:40:00,43.4,30.4,30.11,WSW,246,1.0,4.0,60,0.00,,,0.00,Wunderground v.1.15,2013-03-31 04:40:00,
2013-03-31 00:50:00,43.3,30.3,30.11,WSW,238,2.0,2.0,60,0.00,,,0.00,Wunderground v.1.15,2013-03-31 04:50:00,
2013-03-31 00:55:00,43.1,30.6,30.11,SW,222,1.0,2.0,61,0.00,,,0.00,Wunderground v.1.15,2013-03-31 04:55:00,
2013-03-31 01:00:00,42.9,30.4,30.11,WSW,252,1.0,4.0,61,0.00,,,0.00,Wunderground v.1.15,2013-03-31 05:00:00,
2013-03-31 01:05:00,42.8,30.7,30.11,SW,215,1.0,4.0,62,0.00,,,0.00,Wunderground v.1.15,2013-03-31 05:05:00,
2013-03-31 01:10:00,42.7,30.6,30.11,WSW,243,1.0,1.0,62,0.00,,,0.00,Wunderground v.1.15,2013-03-31 05:10:00,
2013-03-31 01:15:00,42.7,30.2,30.11,WSW,257,1.0,1.0,61,0.00,,,0.00,Wunderground v.1.15,2013-03-31 05:15:00,
2013-03-31 01:20:00,42.7,30.6,30.11,WSW,252,1.0,1.0,62,0.00,,,0.00,Wunderground v.1.15,2013-03-31 05:20:00,
2013-03-31 01:30:00,42.6,30.1,30.11,SW,228,1.0,3.0,61,0.00,,,0.00,Wunderground v.1.15,2013-03-31 05:30:00,
2013-03-31 01:35:00,42.5,30.4,30.11,SW,214,1.0,3.0,62,0.00,,,0.00,Wunderground v.1.15,2013-03-31 05:35:00,
2013-03-31 01:40:00,42.5,30.0,30.11,WSW,246,1.0,4.0,61,0.00,,,0.00,Wunderground v.1.15,2013-03-31 05:40:00,
2013-03-31 01:45:00,42.4,30.3,30.11,WSW,246,1.0,4.0,62,0.00,,,0.00,Wunderground v.1.15,2013-03-31 05:45:00,
2013-03-31 01:50:00,42.3,30.2,30.11,WSW,240,1.0,1.0,62,0.00,,,0.00,Wunderground v.1.15,2013-03-31 05:50:00,
2013-03-31 01:55:00,42.1,30.0,30.11,WSW,243,1.0,2.0,62,0.00,,,0.00,Wunderground v.1.15,2013-03-31 05:55:00,
2013-03-31 02:05:00,41.8,30.1,30.10,WSW,255,1.0,1.0,63,0.00,,,0.00,Wunderground v.1.15,2013-03-31 06:05:00,
2013-03-31 02:10:00,41.9,30.2,30.11,WSW,257,1.0,1.0,63,0.00,,,0.00,Wunderground v.1.15,2013-03-31 06:10:00,
2013-03-31 02:15:00,41.8,30.1,30.10,WSW,255,1.0,1.0,63,0.00,,,0.00,Wunderground v.1.15,2013-03-31 06:15:00,
2013-03-31 02:20:00,41.7,30.0,30.10,WSW,255,1.0,1.0,63,0.00,,,0.00,Wunderground v.1.15,2013-03-31 06:20:00,
2013-03-31 02:25:00,41.6,29.9,30.10,SE,136,1.0,1.0,63,0.00,,,0.00,Wunderground v.1.15,2013-03-31 06:25:00,
2013-03-31 02:30:00,41.7,30.0,30.10,WSW,241,1.0,3.0,63,0.00,,,0.00,Wunderground v.1.15,2013-03-31 06:30:00,
2013-03-31 02:40:00,41.6,30.3,30.10,ESE,118,1.0,1.0,64,0.00,,,0.00,Wunderground v.1.15,2013-03-31 06:40:00,
2013-03-31 02:45:00,41.7,30.4,30.10,West,259,1.0,1.0,64,0.00,,,0.00,Wunderground v.1.15,2013-03-31 06:45:00,
2013-03-31 02:50:00,41.7,30.4,30.10,West,270,1.0,1.0,64,0.00,,,0.00,Wunderground v.1.15,2013-03-31 06:50:00,
2013-03-31 02:55:00,41.6,30.3,30.10,SW,235,1.0,1.0,64,0.00,,,0.00,Wunderground v.1.15,2013-03-31 06:55:00,
2013-03-31 03:00:00,41.4,30.5,30.10,South,169,1.0,1.0,65,0.00,,,0.00,Wunderground v.1.15,2013-03-31 07:00:00,
2013-03-31 03:05:00,41.1,30.6,30.10,SW,228,1.0,2.0,66,0.00,,,0.00,Wunderground v.1.15,2013-03-31 07:05:00,
2013-03-31 03:15:00,40.8,30.3,30.10,WSW,238,1.0,1.0,66,0.00,,,0.00,Wunderground v.1.15,2013-03-31 07:15:00,
2013-03-31 03:20:00,40.7,30.6,30.10,West,263,1.0,1.0,67,0.00,,,0.00,Wunderground v.1.15,2013-03-31 07:20:00,
2013-03-31 03:25:00,40.6,30.9,30.09,SSW,194,1.0,1.0,68,0.00,,,0.00,Wunderground v.1.15,2013-03-31 07:25:00,
2013-03-31 03:30:00,40.5,30.8,30.09,WSW,246,1.0,1.0,68,0.00,,,0.00,Wunderground v.1.15,2013-03-31 07:30:00,
2013-03-31 03:35:00,40.3,30.9,30.09,WSW,257,1.0,1.0,69,0.00,,,0.00,Wunderground v.1.15,2013-03-31 07:35:00,
2013-03-31 03:40:00,40.1,31.1,30.09,West,264,1.0,1.0,70,0.00,,,0.00,Wunderground v.1.15,2013-03-31 07:40:00,
2013-03-31 03:45:00,40.0,31.0,30.09,West,262,0.0,1.0,70,0.00,,,0.00,Wunderground v.1.15,2013-03-31 07:45:00,
2013-03-31 03:55:00,40.0,31.4,30.09,West,269,0.0,1.0,71,0.00,,,0.00,Wunderground v.1.15,2013-03-31 07:55:00,
2013-03-31 04:00:00,40.0,31.7,30.09,WSW,252,0.0,1.0,72,0.00,,,0.00,Wunderground v.1.15,2013-03-31 08:00:00,
2013-03-31 04:05:00,40.0,31.7,30.09,WSW,246,1.0,1.0,72,0.00,,,0.00,Wunderground v.1.15,2013-03-31 08:05:00,
2013-03-31 04:10:00,39.9,31.6,30.09,SW,231,1.0,1.0,72,0.00,,,0.00,Wunderground v.1.15,2013-03-31 08:10:00,
2013-03-31 04:15:00,39.7,31.8,30.09,WSW,256,0.0,1.0,73,0.00,,,0.00,Wunderground v.1.15,2013-03-31 08:15:00,
2013-03-31 04:20:00,39.6,31.7,30.09,SW,218,0.0,0.0,73,0.00,,,0.00,Wunderground v.1.15,2013-03-31 08:20:00,
2013-03-31 04:30:00,39.7,32.4,30.09,WSW,238,1.0,1.0,75,0.00,,,0.00,Wunderground v.1.15,2013-03-31 08:30:00,
2013-03-31 04:35:00,39.9,32.6,30.09,West,262,1.0,2.0,75,0.00,,,0.00,Wunderground v.1.15,2013-03-31 08:35:00,
2013-03-31 04:40:00,40.0,33.0,30.09,NW,316,1.0,1.0,76,0.00,,,0.00,Wunderground v.1.15,2013-03-31 08:40:00,
2013-03-31 04:45:00,39.9,32.9,30.09,SW,218,1.0,1.0,76,0.00,,,0.00,Wunderground v.1.15,2013-03-31 08:45:00,
2013-03-31 04:50:00,39.9,32.9,30.09,WSW,238,1.0,1.0,76,0.00,,,0.00,Wunderground v.1.15,2013-03-31 08:50:00,
2013-03-31 04:55:00,39.7,32.8,30.09,SW,216,0.0,1.0,76,0.00,,,0.00,Wunderground v.1.15,2013-03-31 08:55:00,
2013-03-31 05:00:00,39.5,32.9,30.09,West,269,0.0,1.0,77,0.00,,,0.00,Wunderground v.1.15,2013-03-31 09:00:00,
2013-03-31 05:10:00,39.3,33.0,30.09,West,274,1.0,1.0,78,0.00,,,0.00,Wunderground v.1.15,2013-03-31 09:10:00,
2013-03-31 05:15:00,39.2,32.9,30.09,West,264,0.0,1.0,78,0.00,,,0.00,Wunderground v.1.15,2013-03-31 09:15:00,
2013-03-31 05:20:00,39.1,33.1,30.09,WSW,256,0.0,0.0,79,0.00,,,0.00,Wunderground v.1.15,2013-03-31 09:20:00,
2013-03-31 05:25:00,39.0,33.0,30.09,West,259,0.0,0.0,79,0.00,,,0.00,Wunderground v.1.15,2013-03-31 09:25:00,
2013-03-31 05:30:00,38.9,32.9,30.08,WSW,252,0.0,2.0,79,0.00,,,0.00,Wunderground v.1.15,2013-03-31 09:30:00,
2013-03-31 05:35:00,38.8,33.2,30.08,WSW,240,1.0,2.0,80,0.00,,,0.00,Wunderground v.1.15,2013-03-31 09:35:00,
2013-03-31 05:45:00,38.5,33.2,30.09,WSW,240,0.0,1.0,81,0.00,,,0.00,Wunderground v.1.15,2013-03-31 09:45:00,
2013-03-31 05:50:00,38.6,33.6,30.09,SW,224,0.0,0.0,82,0.00,,,0.00,Wunderground v.1.15,2013-03-31 09:50:00,
2013-03-31 05:55:00,38.6,33.6,30.09,West,263,1.0,1.0,82,0.00,,,0.00,Wunderground v.1.15,2013-03-31 09:55:00,
2013-03-31 06:00:00,38.5,33.2,30.08,WSW,249,0.0,1.0,81,0.00,,,0.00,Wunderground v.1.15,2013-03-31 10:00:00,
2013-03-31 06:05:00,38.4,33.4,30.08,SW,228,0.0,1.0,82,0.00,,,0.00,Wunderground v.1.15,2013-03-31 10:05:00,
2013-03-31 06:10:00,38.2,33.2,30.08,SW,225,0.0,0.0,82,0.00,,,0.00,Wunderground v.1.15,2013-03-31 10:10:00,
2013-03-31 06:15:00,38.1,33.1,30.08,WSW,252,0.0,0.0,82,0.00,,,0.00,Wunderground v.1.15,2013-03-31 10:15:00,
2013-03-31 06:25:00,38.0,33.3,30.07,SW,218,0.0,1.0,83,0.00,,,0.00,Wunderground v.1.15,2013-03-31 10:25:00,
2013-03-31 06:30:00,37.9,33.2,30.08,SW,214,0.0,0.0,83,0.00,,,0.00,Wunderground v.1.15,2013-03-31 10:30:00,
2013-03-31 06:35:00,37.9,33.2,30.08,SW,214,0.0,0.0,83,0.00,,,0.00,Wunderground v.1.15,2013-03-31 10:35:00,
2013-03-31 06:40:00,37.8,33.4,30.08,SSW,212,0.0,1.0,84,0.00,,,0.00,Wunderground v.1.15,2013-03-31 10:40:00,
2013-03-31 06:45:00,37.7,33.6,30.08,SW,221,0.0,1.0,85,0.00,,,0.00,Wunderground v.1.15,2013-03-31 10:45:00,
2013-03-31 06:50:00,37.7,33.6,30.08,SW,225,0.0,0.0,85,0.00,,,0.00,Wunderground v.1.15,2013-03-31 10:50:00,
2013-03-31 07:00:00,37.7,33.9,30.08,SSW,212,0.0,0.0,86,0.00,,,0.00,Wunderground v.1.15,2013-03-31 11:00:00,
2013-03-31 07:10:00,38.5,34.4,30.08,WNW,283,0.0,0.0,85,0.00,,,0.00,Wunderground v.1.15,2013-03-31 11:10:00,
2013-03-31 07:15:00,38.9,34.8,30.08,WNW,282,0.0,0.0,85,0.00,,,0.00,Wunderground v.1.15,2013-03-31 11:15:00,
2013-03-31 07:20:00,39.6,35.5,30.08,WNW,283,0.0,0.0,85,0.00,,,0.00,Wunderground v.1.15,2013-03-31 11:20:00,
2013-03-31 07:25:00,40.2,36.1,30.07,WNW,283,0.0,0.0,85,0.00,,,0.00,Wunderground v.1.15,2013-03-31 11:25:00,
2013-03-31 07:30:00,40.3,35.8,30.08,WNW,282,0.0,0.0,84,0.00,,,0.00,Wunderground v.1.15,2013-03-31 11:30:00,
2013-03-31 07:35:00,41.0,36.5,30.08,WNW,282,0.0,0.0,84,0.00,,,0.00,Wunderground v.1.15,2013-03-31 11:35:00,
2013-03-31 07:45:00,41.2,36.1,30.07,WNW,283,0.0,0.0,82,0.00,,,0.00,Wunderground v.1.15,2013-03-31 11:45:00,
2013-03-31 07:50:00,41.7,36.9,30.07,WNW,283,0.0,0.0,83,0.00,,,0.00,Wunderground v.1.15,2013-03-31 11:50:00,
2013-03-31 07:55:00,42.2,36.8,30.07,WNW,283,0.0,0.0,81,0.00,,,0.00,Wunderground v.1.15,2013-03-31 11:55:00,
2013-03-31 08:00:00,42.3,36.6,30.07,WNW,282,0.0,1.0,80,0.00,,,0.00,Wunderground v.1.15,2013-03-31 12:00:00,
2013-03-31 08:05:00,42.6,37.2,30.07,SE,131,0.0,2.0,81,0.00,,,0.00,Wunderground v.1.15,2013-03-31 12:05:00,
2013-03-31 08:10:00,43.3,37.5,30.07,SW,225,1.0,1.0,80,0.00,,,0.00,Wunderground v.1.15,2013-03-31 12:10:00,
2013-03-31 08:15:00,44.4,38.3,30.08,SW,215,1.0,1.0,79,0.00,,,0.00,Wunderground v.1.15,2013-03-31 12:15:00,
2013-03-31 08:25:00,44.8,38.0,30.08,WNW,285,1.0,2.0,77,0.00,,,0.00,Wunderground v.1.15,2013-03-31 12:25:00,
2013-03-31 08:30:00,44.6,37.8,30.08,West,277,1.0,1.0,77,0.00,,,0.00,Wunderground v.1.15,2013-03-31 12:30:00,
2013-03-31 08:35:00,45.1,38.6,30.08,SE,137,0.0,1.0,78,0.00,,,0.00,Wunderground v.1.15,2013-03-31 12:35:00,
2013-03-31 08:40:00,45.1,38.3,30.08,SE,128,1.0,1.0,77,0.00,,,0.00,Wunderground v.1.15,2013-03-31 12:40:00,
2013-03-31 08:45:00,45.5,39.4,30.07,SE,136,1.0,1.0,79,0.00,,,0.00,Wunderground v.1.15,2013-03-31 12:45:00,
2013-03-31 08:50:00,45.8,40.6,30.07,SE,140,2.0,2.0,82,0.00,,,0.00,Wunderground v.1.15,2013-03-31 12:50:00,
2013-03-31 08:55:00,45.8,40.9,30.07,SSE,152,3.0,4.0,83,0.00,,,0.00,Wunderground v.1.15,2013-03-31 12:55:00,
2013-03-31 09:05:00,46.0,41.1,30.07,SE,135,4.0,4.0,83,0.00,,,0.00,Wunderground v.1.15,2013-03-31 13:05:00,
2013-03-31 09:10:00,46.0,41.1,30.07,SE,133,5.0,5.0,83,0.00,,,0.00,Wunderground v.1.15,2013-03-31 13:10:00,
2013-03-31 09:15:00,46.3,41.4,30.07,SE,139,5.0,7.0,83,0.00,,,0.00,Wunderground v.1.15,2013-03-31 13:15:00,
2013-03-31 09:20:00,46.1,41.5,30.07,SE,145,6.0,6.0,84,0.00,,,0.00,Wunderground v.1.15,2013-03-31 13:20:00,
2013-03-31 09:25:00,46.1,41.5,30.07,SSE,148,6.0,6.0,84,0.00,,,0.00,Wunderground v.1.15,2013-03-31 13:25:00,
2013-03-31 09:30:00,46.2,41.6,30.07,SE,139,6.0,6.0,84,0.00,,,0.00,Wunderground v.1.15,2013-03-31 13:30:00,
2013-03-31 09:35:00,46.6,42.0,30.07,South,181,5.0,6.0,84,0.00,,,0.00,Wunderground v.1.15,2013-03-31 13:35:00,
2013-03-31 09:45:00,46.4,41.8,30.07,SSE,160,6.0,7.0,84,0.00,,,0.00,Wunderground v.1.15,2013-03-31 13:45:00,
2013-03-31 09:50:00,46.4,41.8,30.07,SE,145,6.0,6.0,84,0.00,,,0.00,Wunderground v.1.15,2013-03-31 13:50:00,
2013-03-31 09:55:00,46.2,41.6,30.07,SE,129,6.0,6.0,84,0.00,,,0.00,Wunderground v.1.15,2013-03-31 13:55:00,
2013-03-31 10:00:00,46.3,41.7,30.06,SSE,156,6.0,6.0,84,0.00,,,0.00,Wunderground v.1.15,2013-03-31 14:00:00,
2013-03-31 10:05:00,46.6,41.7,30.06,SSE,166,5.0,6.0,83,0.00,,,0.00,Wunderground v.1.15,2013-03-31 14:05:00,
2013-03-31 10:10:00,46.9,42.0,30.07,SSE,153,5.0,5.0,83,0.00,,,0.00,Wunderground v.1.15,2013-03-31 14:10:00,
2013-03-31 10:20:00,47.7,42.2,30.06,SSE,158,4.0,4.0,81,0.00,,,0.00,Wunderground v.1.15,2013-03-31 14:20:00,
2013-03-31 10:25:00,48.3,42.4,30.06,SE,145,3.0,4.0,80,0.00,,,0.00,Wunderground v.1.15,2013-03-31 14:25:00,
2013-03-31 10:30:00,48.7,42.5,30.06,SSE,160,3.0,3.0,79,0.00,,,0.00,Wunderground v.1.15,2013-03-31 14:30:00,
2013-03-31 10:35:00,49.2,42.6,30.06,South,172,3.0,4.0,78,0.00,,,0.00,Wunderground v.1.15,2013-03-31 14:35:00,
2013-03-31 10:40:00,49.6,42.3,30.06,SSE,152,3.0,3.0,76,0.00,,,0.00,Wunderground v.1.15,2013-03-31 14:40:00,
2013-03-31 10:45:00,49.9,42.3,30.05,South,191,4.0,4.0,75,0.00,,,0.00,Wunderground v.1.15,2013-03-31 14:45:00,
2013-03-31 10:55:00,50.3,42.0,30.05,SSW,205,6.0,11.0,73,0.00,,,0.00,Wunderground v.1.15,2013-03-31 14:55:00,
2013-03-31 11:00:00,50.5,42.2,30.05,SSW,197,6.0,6.0,73,0.00,,,0.00,Wunderground v.1.15,2013-03-31 15:00:00,
2013-03-31 11:05:00,50.4,42.4,30.05,South,188,5.0,6.0,74,0.00,,,0.00,Wunderground v.1.15,2013-03-31 15:05:00,
2013-03-31 11:10:00,49.8,42.2,30.04,SE,138,5.0,5.0,75,0.00,,,0.00,Wunderground v.1.15,2013-03-31 15:10:00,
2013-03-31 11:15:00,49.1,41.9,30.04,South,170,6.0,9.0,76,0.00,,,0.00,Wunderground v.1.15,2013-03-31 15:15:00,
2013-03-31 11:20:00,48.5,42.0,30.04,SSE,160,7.0,7.0,78,0.00,,,0.00,Wunderground v.1.15,2013-03-31 15:20:00,
2013-03-31 11:30:00,48.1,42.2,30.04,SSE,147,5.0,6.0,80,0.00,,,0.00,Wunderground v.1.15,2013-03-31 15:30:00,
2013-03-31 11:35:00,48.1,42.2,30.04,SSW,194,5.0,6.0,80,0.00,,,0.00,Wunderground v.1.15,2013-03-31 15:35:00,
2013-03-31 11:40:00,48.1,41.9,30.03,SSE,156,5.0,6.0,79,0.00,,,0.00,Wunderground v.1.15,2013-03-31 15:40:00,
2013-03-31 11:45:00,48.1,41.9,30.03,SE,145,6.0,6.0,79,0.00,,,0.00,Wunderground v.1.15,2013-03-31 15:45:00,
2013-03-31 11:50:00,48.3,42.1,30.03,ESE,108,6.0,6.0,79,0.00,,,0.00,Wunderground v.1.15,2013-03-31 15:50:00,
2013-03-31 11:55:00,48.4,41.9,30.02,SSE,156,7.0,9.0,78,0.00,,,0.00,Wunderground v.1.15,2013-03-31 15:55:00,
2013-03-31 12:00:00,48.5,42.0,30.02,SE,124,7.0,7.0,78,0.00,,,0.00,Wunderground v.1.15,2013-03-31 16:00:00,
2013-03-31 12:10:00,48.4,42.2,30.01,South,176,7.0,7.0,79,0.00,,,0.00,Wunderground v.1.15,2013-03-31 16:10:00,
2013-03-31 12:15:00,48.4,42.2,30.01,South,177,7.0,7.0,79,0.00,,,0.00,Wunderground v.1.15,2013-03-31 16:15:00,
2013-03-31 12:20:00,48.5,42.6,30.01,SE,129,6.0,6.0,80,0.00,,,0.00,Wunderground v.1.15,2013-03-31 16:20:00,
2013-03-31 12:25:00,48.5,42.6,30.01,SE,145,6.0,6.0,80,0.00,,,0.00,Wunderground v.1.15,2013-03-31 16:25:00,
2013-03-31 12:30:00,48.5,42.6,30.00,SE,131,6.0,7.0,80,0.00,,,0.00,Wunderground v.1.15,2013-03-31 16:30:00,
2013-03-31 12:35:00,48.4,42.5,30.00,SSE,166,6.0,7.0,80,0.00,,,0.00,Wunderground v.1.15,2013-03-31 16:35:00,
2013-03-31 12:45:00,48.2,42.3,29.99,SW,232,5.0,9.0,80,0.00,,,0.00,Wunderground v.1.15,2013-03-31 16:45:00,
2013-03-31 12:55:00,48.1,42.2,29.99,South,184,5.0,7.0,80,0.00,,,0.00,Wunderground v.1.15,2013-03-31 16:55:00,
2013-03-31 13:00:00,48.2,42.3,29.99,SSW,210,5.0,5.0,80,0.00,,,0.00,Wunderground v.1.15,2013-03-31 17:00:00,
2013-03-31 13:05:00,48.4,42.2,29.99,South,174,4.0,5.0,79,0.00,,,0.00,Wunderground v.1.15,2013-03-31 17:05:00,
2013-03-31 13:10:00,48.4,41.9,29.98,South,188,4.0,5.0,78,0.00,,,0.00,Wunderground v.1.15,2013-03-31 17:10:00,
2013-03-31 13:15:00,48.4,41.9,29.98,SSW,207,5.0,5.0,78,0.00,,,0.00,Wunderground v.1.15,2013-03-31 17:15:00,
2013-03-31 13:20:00,48.3,42.1,29.97,SW,228,5.0,5.0,79,0.00,,,0.00,Wunderground v.1.15,2013-03-31 17:20:00,
2013-03-31 13:30:00,48.0,42.1,29.97,South,191,5.0,5.0,80,0.00,,,0.00,Wunderground v.1.15,2013-03-31 17:30:00,
2013-03-31 13:35:00,47.9,41.4,29.97,SSE,149,5.0,7.0,78,0.00,,,0.00,Wunderground v.1.15,2013-03-31 17:35:00,
2013-03-31 13:40:00,47.7,41.5,29.96,SSE,163,6.0,6.0,79,0.00,,,0.00,Wunderground v.1.15,2013-03-31 17:40:00,
2013-03-31 13:45:00,47.6,41.4,29.96,SE,145,5.0,6.0,79,0.00,,,0.00,Wunderground v.1.15,2013-03-31 17:45:00,
2013-03-31 13:50:00,47.7,41.5,29.95,South,174,5.0,5.0,79,0.00,,,0.00,Wunderground v.1.15,2013-03-31 17:50:00,
2013-03-31 13:55:00,47.8,41.6,29.95,SSE,148,5.0,5.0,79,0.00,,,0.00,Wunderground v.1.15,2013-03-31 17:55:00,
2013-03-31 14:05:00,48.2,42.0,29.94,SSW,193,5.0,6.0,79,0.00,,,0.00,Wunderground v.1.15,2013-03-31 18:05:00,
2013-03-31 14:10:00,48.4,42.2,29.94,South,184,5.0,5.0,79,0.00,,,0.00,Wunderground v.1.15,2013-03-31 18:10:00,
2013-03-31 14:20:00,48.5,42.3,29.93,SE,130,5.0,5.0,79,0.00,,,0.00,Wunderground v.1.15,2013-03-31 18:20:00,
2013-03-31 14:25:00,48.4,41.9,29.92,South,181,6.0,6.0,78,0.00,,,0.00,Wunderground v.1.15,2013-03-31 18:25:00,
2013-03-31 14:30:00,48.3,41.8,29.92,SE,143,6.0,6.0,78,0.00,,,0.00,Wunderground v.1.15,2013-03-31 18:30:00,
2013-03-31 14:35:00,48.3,42.1,29.92,South,169,6.0,6.0,79,0.00,,,0.00,Wunderground v.1.15,2013-03-31 18:35:00,
2013-03-31 14:40:00,48.5,42.0,29.92,ESE,112,6.0,6.0,78,0.00,,,0.00,Wunderground v.1.15,2013-03-31 18:40:00,
2013-03-31 14:50:00,48.6,41.7,29.91,SSE,163,4.0,6.0,77,0.00,,,0.00,Wunderground v.1.15,2013-03-31 18:50:00,
2013-03-31 14:55:00,48.6,41.7,29.90,SSE,150,4.0,13.0,77,0.00,,,0.00,Wunderground v.1.15,2013-03-31 18:55:00,
2013-03-31 15:00:00,48.4,41.9,29.90,South,188,5.0,6.0,78,0.00,,,0.00,Wunderground v.1.15,2013-03-31 19:00:00,
2013-03-31 15:10:00,47.7,41.5,29.89,East,98,8.0,11.0,79,0.00,,,0.00,Wunderground v.1.15,2013-03-31 19:10:00,
2013-03-31 15:15:00,47.5,41.3,29.89,SE,134,9.0,12.0,79,0.00,,,0.00,Wunderground v.1.15,2013-03-31 19:15:00,
2013-03-31 15:20:00,47.4,41.5,29.88,SSE,150,10.0,10.0,80,0.00,,,0.00,Wunderground v.1.15,2013-03-31 19:20:00,
2013-03-31 15:30:00,47.3,41.4,29.88,SSE,150,9.0,9.0,80,0.00,,,0.00,Wunderground v.1.15,2013-03-31 19:30:00,
2013-03-31 15:35:00,47.2,41.7,29.88,SSE,148,10.0,11.0,81,0.00,,,0.00,Wunderground v.1.15,2013-03-31 19:35:00,
2013-03-31 15:40:00,46.9,41.4,29.87,SE,145,10.0,10.0,81,0.00,,,0.00,Wunderground v.1.15,2013-03-31 19:40:00,
2013-03-31 15:45:00,46.9,41.4,29.87,South,169,9.0,12.0,81,0.00,,,0.00,Wunderground v.1.15,2013-03-31 19:45:00,
2013-03-31 15:50:00,46.8,41.6,29.87,SSW,205,9.0,9.0,82,0.00,,,0.00,Wunderground v.1.15,2013-03-31 19:50:00,
2013-03-31 16:00:00,46.9,41.4,29.87,South,181,9.0,9.0,81,0.00,,,0.00,Wunderground v.1.15,2013-03-31 20:00:00,
2013-03-31 16:05:00,47.0,41.8,29.87,SSE,155,8.0,9.0,82,0.00,,,0.00,Wunderground v.1.15,2013-03-31 20:05:00,
2013-03-31 16:10:00,47.2,41.7,29.87,South,179,6.0,8.0,81,0.00,,,0.00,Wunderground v.1.15,2013-03-31 20:10:00,
2013-03-31 16:15:00,47.2,41.7,29.87,SSE,152,6.0,8.0,81,0.00,,,0.00,Wunderground v.1.15,2013-03-31 20:15:00,
2013-03-31 16:20:00,47.2,41.7,29.86,SSW,193,7.0,7.0,81,0.00,,,0.00,Wunderground v.1.15,2013-03-31 20:20:00,
2013-03-31 16:25:00,47.1,41.9,29.86,South,188,7.0,7.0,82,0.00,,,0.00,Wunderground v.1.15,2013-03-31 20:25:00,
2013-03-31 16:30:00,46.9,42.0,29.87,South,170,7.0,13.0,83,0.00,,,0.00,Wunderground v.1.15,2013-03-31 20:30:00,
2013-03-31 16:40:00,46.6,42.3,29.86,SSE,153,7.0,7.0,85,0.00,,,0.00,Wunderground v.1.15,2013-03-31 20:40:00,
2013-03-31 16:45:00,46.4,42.4,29.86,SSE,163,5.0,7.0,86,0.00,,,0.01,Wunderground v.1.15,2013-03-31 20:45:00,
2013-03-31 16:55:00,46.0,42.6,29.86,SE,142,5.0,10.0,88,0.06,,,0.02,Wunderground v.1.15,2013-03-31 20:55:00,
2013-03-31 17:05:00,45.6,42.5,29.85,SSE,152,6.0,6.0,89,0.08,,,0.03,Wunderground v.1.15,2013-03-31 21:05:00,
2013-03-31 17:10:00,45.4,42.3,29.85,SSE,148,6.0,6.0,89,0.17,,,0.05,Wunderground v.1.15,2013-03-31 21:10:00,
2013-03-31 17:15:00,45.2,42.4,29.85,SE,146,6.0,6.0,90,0.11,,,0.05,Wunderground v.1.15,2013-03-31 21:15:00,
2013-03-31 17:20:00,45.2,42.4,29.85,SE,142,6.0,12.0,90,0.07,,,0.06,Wunderground v.1.15,2013-03-31 21:20:00,
2013-03-31 17:25:00,45.3,42.5,29.84,SE,130,7.0,12.0,90,0.09,,,0.07,Wunderground v.1.15,2013-03-31 21:25:00,
2013-03-31 17:30:00,45.5,42.7,29.83,ESE,120,10.0,15.0,90,0.17,,,0.08,Wunderground v.1.15,2013-03-31 21:30:00,
2013-03-31 17:40:00,45.6,42.5,29.83,South,181,11.0,11.0,89,0.26,,,0.11,Wunderground v.1.15,2013-03-31 21:40:00,
2013-03-31 17:45:00,45.5,42.7,29.83,ESE,117,9.0,11.0,90,0.27,,,0.14,Wunderground v.1.15,2013-03-31 21:45:00,
2013-03-31 17:50:00,45.5,42.7,29.83,SE,131,9.0,9.0,90,0.33,,,0.16,Wunderground v.1.15,2013-03-31 21:50:00,
2013-03-31 17:55:00,45.5,42.7,29.83,South,170,10.0,10.0,90,0.28,,,0.19,Wunderground v.1.15,2013-03-31 21:55:00,
2013-03-31 18:00:00,45.4,42.6,29.82,SE,131,8.0,8.0,90,0.32,,,0.21,Wunderground v.1.15,2013-03-31 22:00:00,
2013-03-31 18:05:00,45.2,42.4,29.82,SE,138,7.0,8.0,90,0.17,,,0.23,Wunderground v.1.15,2013-03-31 22:05:00,
2013-03-31 18:10:00,45.1,42.6,29.81,SSE,160,6.0,6.0,91,0.21,,,0.24,Wunderground v.1.15,2013-03-31 22:10:00,
2013-03-31 18:20:00,45.0,42.5,29.81,SE,142,3.0,3.0,91,0.27,,,0.28,Wunderground v.1.15,2013-03-31 22:20:00,
2013-03-31 18:25:00,45.0,42.8,29.80,SE,145,3.0,4.0,92,0.43,,,0.31,Wunderground v.1.15,2013-03-31 22:25:00,
2013-03-31 18:30:00,45.0,42.8,29.80,SSE,158,5.0,7.0,92,0.33,,,0.35,Wunderground v.1.15,2013-03-31 22:30:00,
2013-03-31 18:35:00,44.9,42.7,29.79,SE,125,6.0,7.0,92,0.18,,,0.36,Wunderground v.1.15,2013-03-31 22:35:00,
2013-03-31 18:40:00,44.9,42.7,29.79,SE,129,7.0,7.0,92,0.16,,,0.37,Wunderground v.1.15,2013-03-31 22:40:00,
2013-03-31 18:45:00,44.9,42.7,29.78,SE,140,8.0,12.0,92,0.12,,,0.38,Wunderground v.1.15,2013-03-31 22:45:00,
2013-03-31 18:55:00,44.8,42.9,29.77,ESE,105,9.0,11.0,93,0.12,,,0.41,Wunderground v.1.15,2013-03-31 22:55:00,
2013-03-31 19:00:00,44.7,42.8,29.76,SE,145,8.0,8.0,93,0.26,,,0.42,Wunderground v.1.15,2013-03-31 23:00:00,
2013-03-31 19:05:00,44.6,42.7,29.75,ESE,120,8.0,14.0,93,0.14,,,0.44,Wunderground v.1.15,2013-03-31 23:05:00,
2013-03-31 19:10:00,44.6,43.0,29.75,SE,139,9.0,9.0,94,0.10,,,0.44,Wunderground v.1.15,2013-03-31 23:10:00,
2013-03-31 19:15:00,44.6,43.0,29.75,SE,126,8.0,9.0,94,0.06,,,0.44,Wunderground v.1.15,2013-03-31 23:15:00,
2013-03-31 19:20:00,44.6,43.0,29.75,ESE,109,7.0,7.0,94,0.04,,,0.44,Wunderground v.1.15,2013-03-31 23:20:00,
2013-03-31 19:30:00,44.6,43.0,29.74,ESE,112,7.0,7.0,94,0.04,,,0.45,Wunderground v.1.15,2013-03-31 23:30:00,
2013-03-31 19:35:00,44.6,43.0,29.73,SE,131,7.0,11.0,94,0.05,,,0.46,Wunderground v.1.15,2013-03-31 23:35:00,
2013-03-31 19:40:00,44.6,43.0,29.72,SE,139,9.0,12.0,94,0.08,,,0.47,Wunderground v.1.15,2013-03-31 23:40:00,
2013-03-31 19:45:00,44.6,43.0,29.71,SE,139,9.0,12.0,94,0.08,,,0.47,Wunderground v.1.15,2013-03-31 23:45:00,
2013-03-31 19:50:00,44.7,43.4,29.70,ESE,105,8.0,18.0,95,0.05,,,0.47,Wunderground v.1.15,2013-03-31 23:50:00,
2013-03-31 19:55:00,44.7,43.4,29.71,SSE,160,11.0,18.0,95,0.04,,,0.47,Wunderground v.1.15,2013-03-31 23:55:00,
2013-03-31 20:00:00,44.6,43.0,29.71,SE,130,12.0,12.0,94,0.00,,,0.47,Wunderground v.1.15,2013-04-01 00:00:00,
2013-03-31 20:10:00,44.5,43.2,29.70,SE,129,9.0,9.0,95,0.00,,,0.47,Wunderground v.1.15,2013-04-01 00:10:00,
2013-03-31 20:15:00,44.5,43.2,29.70,SE,126,9.0,9.0,95,0.00,,,0.48,Wunderground v.1.15,2013-04-01 00:15:00,
2013-03-31 20:20:00,44.8,43.5,29.69,SSE,154,9.0,11.0,95,0.00,,,0.48,Wunderground v.1.15,2013-04-01 00:20:00,
2013-03-31 20:25:00,45.0,43.7,29.69,SE,144,12.0,12.0,95,0.00,,,0.48,Wunderground v.1.15,2013-04-01 00:25:00,
2013-03-31 20:30:00,44.9,43.6,29.68,ESE,102,11.0,11.0,95,0.00,,,0.48,Wunderground v.1.15,2013-04-01 00:30:00,
2013-03-31 20:35:00,45.1,44.0,29.68,SSE,151,10.0,11.0,96,0.00,,,0.48,Wunderground v.1.15,2013-04-01 00:35:00,
2013-03-31 20:40:00,45.2,44.1,29.68,WNW,288,7.0,7.0,96,0.00,,,0.48,Wunderground v.1.15,2013-04-01 00:40:00,
2013-03-31 20:50:00,45.6,44.5,29.69,East,99,2.0,2.0,96,0.00,,,0.49,Wunderground v.1.15,2013-04-01 00:50:00,
2013-03-31 21:00:00,46.2,45.1,29.68,SSW,193,2.0,2.0,96,0.00,,,0.49,Wunderground v.1.15,2013-04-01 01:00:00,
2013-03-31 21:05:00,46.4,45.3,29.69,SSW,208,1.0,3.0,96,0.00,,,0.49,Wunderground v.1.15,2013-04-01 01:05:00,
2013-03-31 21:10:00,46.6,45.5,29.68,East,96,2.0,2.0,96,0.00,,,0.49,Wunderground v.1.15,2013-04-01 01:10:00,
2013-03-31 21:15:00,46.8,45.7,29.68,South,186,2.0,2.0,96,0.00,,,0.49,Wunderground v.1.15,2013-04-01 01:15:00,
2013-03-31 21:20:00,46.9,45.8,29.68,SSW,207,1.0,1.0,96,0.00,,,0.49,Wunderground v.1.15,2013-04-01 01:20:00,
2013-03-31 21:25:00,46.9,45.8,29.68,SW,225,1.0,3.0,96,0.00,,,0.49,Wunderground v.1.15,2013-04-01 01:25:00,
2013-03-31 21:30:00,47.0,45.9,29.68,SW,218,1.0,1.0,96,0.00,,,0.49,Wunderground v.1.15,2013-04-01 01:30:00,
2013-03-31 21:40:00,47.1,46.0,29.67,SW,228,0.0,1.0,96,0.00,,,0.49,Wunderground v.1.15,2013-04-01 01:40:00,
2013-03-31 21:45:00,47.2,46.1,29.66,SSW,207,0.0,1.0,96,0.00,,,0.49,Wunderground v.1.15,2013-04-01 01:45:00,
2013-03-31 21:50:00,47.2,46.1,29.66,SSW,207,0.0,0.0,96,0.00,,,0.49,Wunderground v.1.15,2013-04-01 01:50:00,
2013-03-31 21:55:00,47.3,46.2,29.66,WSW,246,0.0,0.0,96,0.00,,,0.49,Wunderground v.1.15,2013-04-01 01:55:00,
2013-03-31 22:00:00,47.3,46.2,29.67,WSW,254,0.0,0.0,96,0.00,,,0.49,Wunderground v.1.15,2013-04-01 02:00:00,
2013-03-31 22:05:00,47.5,46.4,29.67,WNW,285,0.0,0.0,96,0.00,,,0.49,Wunderground v.1.15,2013-04-01 02:05:00,
2013-03-31 22:15:00,47.6,46.5,29.67,SSW,208,1.0,1.0,96,0.00,,,0.49,Wunderground v.1.15,2013-04-01 02:15:00,
2013-03-31 22:20:00,47.6,46.5,29.67,SSW,211,1.0,1.0,96,0.00,,,0.49,Wunderground v.1.15,2013-04-01 02:20:00,
2013-03-31 22:30:00,47.5,46.4,29.67,West,278,1.0,3.0,96,0.00,,,0.49,Wunderground v.1.15,2013-04-01 02:30:00,
2013-03-31 22:35:00,47.4,46.3,29.67,WNW,283,1.0,1.0,96,0.00,,,0.49,Wunderground v.1.15,2013-04-01 02:35:00,
2013-03-31 22:40:00,47.3,46.2,29.66,SW,215,1.0,2.0,96,0.00,,,0.49,Wunderground v.1.15,2013-04-01 02:40:00,
2013-03-31 22:45:00,47.3,46.2,29.67,West,278,1.0,1.0,96,0.00,,,0.49,Wunderground v.1.15,2013-04-01 02:45:00,
2013-03-31 22:50:00,47.3,46.2,29.67,WNW,297,1.0,2.0,96,0.00,,,0.49,Wunderground v.1.15,2013-04-01 02:50:00,
2013-03-31 22:55:00,47.4,46.3,29.67,SSW,194,1.0,1.0,96,0.00,,,0.49,Wunderground v.1.15,2013-04-01 02:55:00,
2013-03-31 23:05:00,47.6,46.8,29.66,SW,231,3.0,4.0,97,0.00,,,0.49,Wunderground v.1.15,2013-04-01 03:05:00,
2013-03-31 23:10:00,47.8,47.0,29.66,WNW,285,3.0,8.0,97,0.00,,,0.49,Wunderground v.1.15,2013-04-01 03:10:00,
2013-03-31 23:15:00,47.9,47.1,29.66,West,262,3.0,8.0,97,0.00,,,0.49,Wunderground v.1.15,2013-04-01 03:15:00,
2013-03-31 23:20:00,48.0,47.2,29.66,WSW,246,3.0,3.0,97,0.00,,,0.49,Wunderground v.1.15,2013-04-01 03:20:00,
2013-03-31 23:25:00,48.1,47.3,29.66,SSW,207,3.0,3.0,97,0.00,,,0.49,Wunderground v.1.15,2013-04-01 03:25:00,
2013-03-31 23:30:00,48.3,47.5,29.67,NW,311,4.0,5.0,97,0.00,,,0.49,Wunderground v.1.15,2013-04-01 03:30:00,
2013-03-31 23:35:00,48.4,47.6,29.66,SW,218,3.0,5.0,97,0.00,,,0.49,Wunderground v.1.15,2013-04-01 03:35:00,
2013-03-31 23:45:00,48.7,47.6,29.67,WNW,288,3.0,5.0,96,0.00,,,0.49,Wunderground v.1.15,2013-04-01 03:45:00,
2013-03-31 23:50:00,48.8,47.7,29.67,SW,231,3.0,3.0,96,0.00,,,0.49,Wunderground v.1.15,2013-04-01 03:50:00,
2013-03-31 23:55:00,48.9,47.8,29.67,SSW,212,3.0,3.0,96,0.00,,,0.49,Wunderground v.1.15,2013-04-01 03:55:00,